Showing default

SPIRIT, 58468

Orbit data source: Space-Track

SPIRIT, 58468 is a payload satellite owned by U Melb. (AU) in SSO that was launched on Fri, 01 Dec 2023 UTC via an FALCON 9 launch vehicle from the Air Force Western Test Range (AFWTR). Payload-class satellites include a variety of spacecraft equipped with specific instruments for various scientific and technological missions. These include communications satellites like Starlink; space stations such as the ISS; scientific satellites like the Hubble; Earth observation satellites from companies like Planet Labs, Umbra, and HawkEye 360; GPS; miniature CubeSats for education and research; and military/defense satellites.

Loading next visibility...
Identifier
58468, 2023-185G
Orbit
SSO
Last TLE update
5 hours ago
Origin
Manufacturer
U Melb.
Mission
Operational Amateur Astronomy
Bus & Motor
CUBESAT 6U, Unknown motor
Mass
11.5 kg wet, 11.5 kg dry
Launch date (UTC)
2023-12-01 (2 years ago)
Launch vehicle
FALCON 9
Launch site
Air Force Western Test Range (AFWTR)
Object type
Payload
Rocket body
Debris
Shape & HBR
Box, 0.3 m
Radar Cross Section
0.080 m², Medium (>0.1 m² and < 1m²)

Expand to show TLE details & history

TLE from 5 hours ago
0 SPIRIT
1 58468U 23185G   25192.20788854  .00011398  00000-0  29288-3 0  9995
2 58468  97.3751 262.5722 0007598 353.4308   6.6837 15.39425687 89575
Epoch: 2025-07-11T04:59Z
TLE epoch observation values (Epoch: 2025-07-11T04:59:21.569Z)
Latitude
-0.00003°
Longitude
-101.63079°
Altitude
445.772 km
Speed
7.648 km/s
True Right ascension
17h 30m 17s
True Declination
0° 00' 00"
Sunlit
Object was in full shadow at epoch
Visualization orbit readout
Latitude
75.38389°
Longitude
-130.99714°
Altitude
460.181 km
Speed
7.644 km/s
Apparent Right ascension
11h 29m 49s
Apparent Declination
24° 37' 46"
Sunlit
Object is in daylight
Visualization observer readout
Local Sidereal Time
22:18:00
Azimuth
342.234° N
Elevation
-23.319°
Doppler factor
1
Orbital elements
Apogee altitude
449.929 km
Perigee altitude
439.561 km
Semi-major axis
6,822.882 km
Eccentricity
0.00076
Inclination
97.3751°
RAAN
262.5722°
Arg. of periapsis
353.4308°
True anomaly
Unknown
Mean anomaly
6.6837°
Eccentric anomaly
Unknown
Mean motion
3.85116 °/min
Orbital period
93.48 mins
BSTAR
0.00029288
Loading maneuver chart data...
Loading SW <> Apogee altitude chart data...
Loading historical data...
Loading historical data...
Loading historical data...
Loading historical data...
Loading historical data...
Loading historical data...
Loading historical data...

SPIRIT Visibility forecast

Observer location: undefined°, undefined°

Span
Click to sort rows by Start time (UTC) header in descending order
Start Az.
Max El. time (UTC)
Max El. Az.
Max El.
End time (UTC)
End Az.
5 mins2025-07-11 18:02:12.272Z343.329° N2025-07-11 18:04:12.272Z283.043° WNW30.654°2025-07-11 18:07:12.272Z218.904° SW
5 mins2025-07-12 04:32:12.272Z143.477° SSE2025-07-12 04:34:12.272Z58.316° ENE38.204°2025-07-12 04:37:12.272Z358.019° N
|